Home > Weather > Kaliningrad > Past weeks

Flag for Russia Weather for the Past 2 Weeks in Kaliningrad, Russia

Now
39 °F

Fog.


Feels Like: 34 °F
Forecast: 38 / 44 °F
Wind: 8 mph from South

Location: Kaliningrad/Khrabrovo Airport

Current Time: Feb 6, 2016 at 9:38:54 PM

Latest Report: Feb 6, 2016 at 9:00 PM


Visibility: 3 mi

Pressure: 29.95 "Hg

Humidity: 100%

Dew point: 39 °F

Location of KaliningradLocation

Historic Weather in Kaliningrad — Graph

°F

Kaliningrad Temperature Yesterday

Maximum temperature yesterday: 39 °F (at 11:30 AM)
Minimum temperature yesterday: 28 °F (at 3:30 AM)
Average temperature yesterday: 34 °F

High & Low Weather Summary for the Past Weeks

 TemperatureHumidityPressure
High46 °F (Jan 27, 8:30 PM)100% (Jan 24, 2:00 PM)30.48 "Hg (Jan 24, 2:00 PM)
Low9 °F (Jan 23, 9:00 AM)57% (Jan 29, 2:30 PM)29.36 "Hg (Jan 31, 1:00 AM)
Average37 °F87%29.86 "Hg
* Reported Jan 22 8:00 PM — Feb 6 8:00 PM, Kaliningrad, Weather by CustomWeather, © 2016

Note: Actual official high and low records may vary slightly from our data, if they occured in-between our weather recording intervals... More about our weather records

Advertising

Kaliningrad Weather History for the Previous 24 Hours

 ConditionsComfort  
Time TempWeatherWind HumidityBarometerVisibility
8:00 PM
Sat, Feb 6
41 °FFog.10 mph93%29.95 "Hg3 mi
7:30 PM41 °FFog.10 mph93%29.98 "Hg3 mi
7:00 PM41 °FOvercast.13 mph93%29.98 "Hg4 mi
6:30 PM41 °FMore clouds than sun.13 mph93%29.98 "Hg4 mi
6:00 PM41 °FFog.10 mph93%29.98 "Hg3 mi
5:30 PM41 °FFog.13 mph93%29.98 "Hg3 mi
5:00 PM41 °FFog.10 mph93%29.98 "Hg3 mi
4:30 PM41 °FLow clouds.10 mph93%29.98 "Hg4 mi
4:00 PM41 °FLow clouds.10 mph93%30.01 "Hg4 mi
3:30 PM41 °FLow clouds.10 mph93%30.01 "Hg4 mi
3:00 PM41 °FLow clouds.13 mph93%30.01 "Hg4 mi
2:30 PM41 °FMore clouds than sun.10 mph87%30.01 "Hg4 mi
2:00 PM39 °FMostly cloudy.13 mph93%30.04 "Hg4 mi
1:30 PM39 °FMore clouds than sun.15 mph93%30.04 "Hg4 mi
1:00 PM39 °FLow clouds.10 mph93%30.04 "Hg4 mi
12:30 PM39 °FLow clouds.13 mph93%30.04 "Hg4 mi
12:00 PM37 °FLow clouds.13 mph93%30.07 "Hg4 mi
11:30 AM37 °FLow clouds.10 mph93%30.07 "Hg4 mi
11:00 AM36 °FLow clouds.10 mph100%30.07 "Hg4 mi
10:30 AM36 °FLow clouds.8 mph93%30.07 "Hg4 mi
10:00 AM36 °FPassing clouds.8 mph93%30.07 "Hg6 mi
9:30 AM36 °FPassing clouds.8 mph93%30.07 "Hg5 mi
9:00 AM34 °FPassing clouds.6 mph100%30.07 "Hg5 mi
8:30 AM34 °FPassing clouds.6 mph100%30.07 "HgN/A
8:00 AM34 °FPassing clouds.6 mph100%30.07 "HgN/A
7:30 AM34 °FPassing clouds.6 mph100%30.07 "HgN/A
7:00 AM34 °FPassing clouds.6 mph100%30.07 "HgN/A
6:00 AM34 °FPassing clouds.6 mph100%30.09 "Hg5 mi
5:30 AM34 °FPassing clouds.6 mph93%30.09 "Hg4 mi
5:00 AM34 °FPassing clouds.6 mph100%30.09 "Hg4 mi
4:00 AM34 °FPassing clouds.6 mph100%30.09 "Hg4 mi
3:00 AM34 °FPassing clouds.6 mph100%30.09 "Hg5 mi
2:00 AM34 °FPassing clouds.3 mph93%30.09 "Hg5 mi
1:00 AM34 °FSnow flurries. Passing clouds.6 mph100%30.09 "Hg3 mi
12:00 AM34 °FSnow flurries. Passing clouds.3 mph100%30.09 "Hg2 mi
11:00 PM
Fri, Feb 5
34 °FSnow flurries. Mostly cloudy.3 mph100%30.09 "Hg6 mi
10:30 PM34 °FSnow flurries. Mostly cloudy.6 mph93%30.09 "Hg2 mi
10:00 PM34 °FSnow flurries. Passing clouds.3 mph93%30.07 "Hg5 mi
9:30 PM34 °FSnow flurries. Mostly cloudy.6 mph93%30.07 "Hg2 mi
9:00 PM36 °FSnow flurries. Passing clouds.3 mph81%30.07 "Hg6 mi
Weather by CustomWeather, © 2016

See weather overviewHow to use our weather pages